Location: Unspecified
(0.0000°N, 0.0000°E)
Time: 13:55:18
(UTC+00:00)

SHIYAN 30 02 - Visible Passes

Search period start: 13 November 2025 00:00
Search period end: 23 November 2025 00:00
Orbit: 583 x 593 km, 35.0° (Epoch: 13 November)

Date Brightness Start Highest point End Pass type
(mag) Time Alt. Az. Time Alt. Az. Time Alt. Az.
13 Nov ? 04:12:27 39° SW 04:13:59 75° SE 04:18:21 10° ENE visible
14 Nov ? 04:19:51 51° NW 04:20:08 52° NW 04:24:23 10° NE visible
15 Nov ? 04:27:06 25° NNW 04:27:06 25° NNW 04:29:57 10° NNE visible
16 Nov ? 04:34:06 12° N 04:34:06 12° N 04:34:46 10° N visible
